Jordan, MT

5:37 AM MST on February 12, 2016 (GMT -0700)
Jordan

Weather History for KJDN - November, 2012

Change the Weather History Date:

Monday, November 5, 2012

  Actual Average Record
Temperature  
Mean Temperature 51 °F 35 °F  
Max Temperature 71 °F 49 °F - ()
Min Temperature 30 °F 21 °F - ()
Degree Days  
Heating Degree Days 14 30  
Month to date heating degree days 109 144  
Since 1 July heating degree days 926 1117  
Cooling Degree Days 0 0  
Month to date cooling degree days 0 0  
Year to date cooling degree days 728 421  
Growing Degree Days 2 (Base 50)    
Moisture  
Dew Point 36 °F    
Average Humidity 63    
Maximum Humidity 92    
Minimum Humidity 34    
Precipitation  
Precipitation 0.00 in 0.02 in - ()
Month to date precipitation 0.19 0.10  
Year to date precipitation 7.14 12.12  
Snow  
Snow 0.00 in - - ()
Month to date snowfall 0.0  
Since 1 July snowfall 0.0  
Since 1 September snowfall 0.0  
Snow Depth 0.00 in    
Sea Level Pressure  
Sea Level Pressure 30.05 in    
Wind  
Wind Speed 9 mph (WNW)    
Max Wind Speed 32 mph    
Max Gust Speed 44 mph    
T = Trace of Precipitation, MM = Missing Value Source: NWS Daily Summary

Daily Weather History Graph

Daily Weather History Graph

Search for Another Location

Airport or City:

Trip Planner

Search our weather history database for the weather conditions in past years. The results will help you decide how hot, cold, wet, or windy it might be!

Date:

Astronomy

Nov. 05, 2012 Rise Set
Actual Time 6:57 AM MST 4:44 PM MST
Civil Twilight 6:25 AM MST 5:16 PM MST
Nautical Twilight 5:48 AM MST 5:52 PM MST
Astronomical Twilight 5:13 AM MST 6:28 PM MST
Moon 10:25 PM MST (11/5) 12:19 PM MST (11/5)
Length of Visible Light 10h 51m
Length of Day
9h 46m
Waning Gibbous, 62% of the Moon is Illuminated
Nov 5
Waning Gibbous
Nov 6
Last Quarter
Nov 13
New
Nov 20
First Quarter
Nov 28
Full

Hourly Weather History & Observations

Time (MST) Temp. Windchill Dew Point Humidity Pressure Visibility Wind Dir Wind Speed Gust Speed Precip Events Conditions
12:48 AM 36.0 °F - 33.1 °F 89% 30.19 in - Calm Calm - N/A   Unknown
1:48 AM 39.9 °F 37.8 °F 34.0 °F 79% 30.15 in - NE 3.5 mph - N/A   Unknown
2:48 AM 42.1 °F - 32.0 °F 67% 30.12 in - Calm Calm - N/A   Unknown
3:48 AM 44.1 °F - 32.0 °F 63% 30.06 in - Calm Calm - N/A   Unknown
4:48 AM 44.1 °F 41.5 °F 35.1 °F 71% 30.06 in - West 4.6 mph - N/A   Unknown
5:48 AM 43.0 °F 40.3 °F 35.1 °F 74% 30.04 in - West 4.6 mph - N/A   Unknown
6:48 AM 43.0 °F 40.3 °F 36.0 °F 76% 30.01 in - West 4.6 mph - N/A   Unknown
7:48 AM 46.0 °F - 37.0 °F 71% 30.00 in - Calm Calm - N/A   Unknown
8:48 AM 50.0 °F - 39.9 °F 68% 29.97 in - SW 4.6 mph - N/A   Unknown
9:48 AM 51.1 °F - 41.0 °F 68% 29.96 in - Calm Calm - N/A   Unknown
10:48 AM 61.0 °F - 43.0 °F 52% 29.92 in - West 11.5 mph 23.0 mph N/A   Unknown
11:48 AM 64.9 °F - 43.0 °F 45% 29.90 in - West 16.1 mph 21.9 mph N/A   Unknown
12:48 PM 68.0 °F - 42.1 °F 39% 29.88 in - West 18.4 mph 25.3 mph N/A   Unknown
1:48 PM 71.1 °F - 41.0 °F 34% 29.86 in - West 24.2 mph 35.7 mph N/A   Unknown
2:48 PM 66.9 °F - 37.0 °F 33% 29.88 in - NW 19.6 mph 28.8 mph N/A   Unknown
3:48 PM 54.0 °F - 37.9 °F 55% 29.99 in - North 24.2 mph 29.9 mph N/A   Unknown
4:48 PM 48.0 °F - 37.0 °F 66% 30.04 in - North 18.4 mph - N/A   Unknown
5:48 PM 44.1 °F 39.5 °F 35.1 °F 71% 30.09 in - North 8.1 mph - N/A   Unknown
6:48 PM 39.0 °F 35.7 °F 33.1 °F 79% 30.15 in - NW 4.6 mph - N/A   Unknown
7:48 PM 41.0 °F 35.2 °F 33.1 °F 73% 30.17 in - NW 9.2 mph - N/A   Unknown
8:48 PM 34.0 °F 28.0 °F 30.0 °F 85% 30.19 in - WSW 6.9 mph - N/A   Unknown
9:48 PM 33.1 °F 26.9 °F 30.9 °F 92% 30.20 in - WNW 6.9 mph - N/A   Unknown
10:48 PM 32.0 °F 25.6 °F 28.9 °F 88% 30.18 in - West 6.9 mph - N/A   Unknown
11:48 PM 30.9 °F 23.5 °F 28.0 °F 89% 30.21 in - WNW 8.1 mph - N/A   Unknown